Weather History for KPSX - August, 2013

Change the Weather History Date:

Thursday, August 22, 2013

  Actual Average Record
Temperature  
Mean Temperature 82 °F -  
Max Temperature 91 °F 91 °F 98 °F (1951)
Min Temperature 75 °F 75 °F 66 °F (1946)
Cooling Degree Days 17    
Growing Degree Days 32 (Base 50)    
Moisture  
Dew Point 75 °F    
Average Humidity 77    
Maximum Humidity 96    
Minimum Humidity 61    
Precipitation  
Precipitation 0.00 in - - ()
Sea Level Pressure  
Sea Level Pressure 30.00 in    
Wind  
Wind Speed 6 mph (East)    
Max Wind Speed 14 mph    
Max Gust Speed 16 mph    
Visibility 10 miles    
Events      
Averages and records for this station are not official NWS values.
T = Trace of Precipitation, MM = Missing Value Source: NWS Daily Summary

Daily Weather History Graph

Daily Weather History Graph

Search for Another Location

Airport or City:

Trip Planner

Search our weather history database for the weather conditions in past years. The results will help you decide how hot, cold, wet, or windy it might be!

Date:

Astronomy

Aug. 22, 2013 Rise Set
Actual Time 6:58 AM CDT 7:57 PM CDT
Civil Twilight 6:33 AM CDT 8:21 PM CDT
Nautical Twilight 6:04 AM CDT 8:50 PM CDT
Astronomical Twilight 5:35 AM CDT 9:19 PM CDT
Moon 8:58 PM CDT (8/22) 8:34 AM CDT (8/22)
Length of Visible Light 13h 47m
Length of Day
12h 59m
Waning Gibbous, 96% of the Moon is Illuminated
Aug 22
Waning Gibbous
Aug 28
Last Quarter
Sep 5
New
Sep 12
First Quarter
Sep 19
Full

Hourly Weather History & Observations

Time (CDT) Temp. Heat Index Dew Point Humidity Pressure Visibility Wind Dir Wind Speed Gust Speed Precip Events Conditions
12:53 AM 77.0 °F - 73.9 °F 90% 30.01 in 10.0 mi NNE 4.6 mph - N/A   Clear
1:53 AM 75.9 °F - 73.9 °F 94% 30.00 in 10.0 mi NE 4.6 mph - N/A   Clear
2:53 AM 75.9 °F - 73.9 °F 94% 30.00 in 10.0 mi NNE 4.6 mph - N/A   Clear
3:53 AM 75.9 °F - 73.9 °F 94% 30.00 in 10.0 mi NE 4.6 mph - N/A   Clear
4:53 AM 75.9 °F - 73.9 °F 94% 30.00 in 10.0 mi NE 4.6 mph - N/A   Partly Cloudy
5:53 AM 75.9 °F - 73.9 °F 94% 30.01 in 10.0 mi NNE 5.8 mph - N/A   Clear
6:53 AM 75.0 °F - 73.9 °F 96% 30.02 in 8.0 mi NNE 5.8 mph - N/A   Clear
7:53 AM 77.0 °F - 75.0 °F 94% 30.03 in 10.0 mi NNE 6.9 mph - N/A   Clear
8:53 AM 81.0 °F 87.3 °F 75.9 °F 85% 30.04 in 10.0 mi NE 4.6 mph - N/A   Clear
9:53 AM 84.9 °F 95.3 °F 77.0 °F 77% 30.04 in 10.0 mi ENE 4.6 mph - N/A   Clear
10:50 AM 87.8 °F 97.6 °F 75.2 °F 66% 30.04 in 10.0 mi ENE 6.9 mph - N/A   Mostly Cloudy
10:53 AM 88.0 °F 98.5 °F 75.9 °F 67% 30.04 in 10.0 mi East 4.6 mph - N/A   Mostly Cloudy
11:15 AM 87.8 °F 97.6 °F 75.2 °F 66% 30.04 in 10.0 mi Variable 3.5 mph - N/A   Scattered Clouds
11:53 AM 88.0 °F 97.5 °F 75.0 °F 65% 30.04 in 10.0 mi Variable 4.6 mph - N/A   Scattered Clouds
12:21 PM 87.8 °F 97.6 °F 75.2 °F 66% 30.03 in 10.0 mi SSE 9.2 mph - N/A   Mostly Cloudy
12:34 PM 87.8 °F 97.6 °F 75.2 °F 66% 30.03 in 10.0 mi SE 8.1 mph - N/A   Scattered Clouds
12:53 PM 88.0 °F 96.5 °F 73.9 °F 63% 30.02 in 10.0 mi SE 8.1 mph - N/A   Partly Cloudy
1:53 PM 89.1 °F 98.0 °F 73.9 °F 61% 29.99 in 10.0 mi SSE 12.7 mph 16.1 mph N/A   Partly Cloudy
2:53 PM 89.1 °F 99.1 °F 75.0 °F 63% 29.98 in 10.0 mi South 11.5 mph - N/A   Partly Cloudy
3:53 PM 89.1 °F 99.1 °F 75.0 °F 63% 29.96 in 10.0 mi SE 11.5 mph - N/A   Clear
4:53 PM 88.0 °F 97.5 °F 75.0 °F 65% 29.96 in 10.0 mi SE 13.8 mph - N/A   Clear
5:53 PM 88.0 °F 96.5 °F 73.9 °F 63% 29.95 in 10.0 mi SE 11.5 mph - N/A   Clear
6:53 PM 84.9 °F 93.3 °F 75.0 °F 72% 29.94 in 10.0 mi SE 12.7 mph - N/A   Clear
7:53 PM 84.0 °F 91.9 °F 75.0 °F 74% 29.94 in 10.0 mi ESE 8.1 mph - N/A   Clear
8:53 PM 82.0 °F 89.4 °F 75.9 °F 82% 29.96 in 10.0 mi SE 6.9 mph - N/A   Clear
9:53 PM 81.0 °F 87.3 °F 75.9 °F 85% 29.98 in 10.0 mi SE 4.6 mph - N/A   Clear
11:53 PM 81.0 °F 86.7 °F 75.0 °F 82% 29.98 in 10.0 mi Calm Calm - N/A   Clear